GFSNIL_sfc_wetblb_042.txt.gz
Wetbulb
62.04 61.21 60.66 61.79 59.68 57.12 53.65 53.44 51.97 51.69 51.73 50.75 50.55 49.75 47.96 46.07 45.32 48.19 47.38 48.23 47.82 47.25
61.58 60.69 60.28 60.81 59.84 55.99 53.33 51.25 51.03 50.67 49.38 49.63 48.65 47.65 45.19 45.65 45.13 47.27 48.47 48.06 47.73 47.08
61.52 61.11 60.51 60.00 58.12 54.22 52.76 51.41 50.56 50.22 49.55 48.89 47.36 45.83 42.90 42.84 46.86 47.16 47.98 46.37 46.13 45.81
61.24 61.38 60.54 59.64 58.12 55.91 54.18 50.92 48.70 48.46 49.03 47.28 45.07 44.18 44.09 45.92 45.18 45.81 44.26 46.21 44.76 44.16
60.91 59.60 58.31 56.58 55.56 54.16 51.19 48.22 49.27 49.91 47.82 45.31 46.72 45.45 44.37 43.98 44.58 44.56 44.49 44.42 44.93 43.94
58.23 55.82 54.40 53.35 51.86 49.90 48.94 49.09 48.90 47.78 45.34 44.88 45.51 43.84 43.90 43.86 43.51 43.85 45.22 44.82 44.33 44.05
56.82 56.33 56.27 54.85 53.02 50.76 49.59 48.12 44.78 44.99 44.76 43.92 43.29 43.19 43.33 43.20 42.90 42.63 44.13 43.96 44.13 44.20
55.09 54.38 53.24 51.77 51.39 50.20 50.59 47.05 43.87 43.09 42.26 43.86 43.44 43.14 43.80 43.43 41.24 42.19 43.48 44.00 44.20 44.38
51.27 49.44 48.62 47.16 46.30 43.11 42.46 42.67 42.23 42.98 42.34 42.53 43.65 39.07 38.12 38.70 40.07 42.39 41.82 41.98 42.94 43.67
48.09 45.79 44.82 43.65 42.35 41.54 43.36 42.00 42.08 42.50 44.53 42.93 43.36 38.37 38.33 37.63 40.86 41.18 41.77 42.07 41.74 41.53
46.80 45.04 44.79 44.07 44.00 42.80 42.93 42.12 42.90 43.53 43.19 44.63 43.36 37.55 37.80 35.60 39.77 40.69 41.19 41.21 41.28 41.02
46.51 45.85 45.56 44.82 44.89 45.57 45.68 44.80 44.18 42.29 39.71 38.76 39.62 38.19 35.83 35.28 39.98 39.41 39.76 40.28 40.57 40.57
46.39 45.82 44.99 44.87 42.77 40.13 40.27 40.05 40.97 42.21 42.96 40.19 41.41 37.84 35.81 36.04 39.00 38.21 38.39 39.68 39.73 35.77
42.10 40.20 41.32 42.72 42.99 42.99 42.50 41.60 41.24 40.13 41.08 41.13 40.20 40.38 36.26 35.66 37.51 37.86 38.36 38.07 38.29 39.18

GFSNIL_sfc_wetblb_045.txt.gz
Wetbulb
64.88 64.01 63.03 61.63 61.05 59.86 59.33 58.65 59.34 57.03 54.02 53.20 53.41 52.04 50.75 50.29 48.16 46.89 47.53 47.81 49.03 48.69
63.94 63.37 63.15 62.22 61.98 59.71 58.58 58.50 56.21 53.04 51.43 51.60 50.24 50.97 51.08 47.81 45.15 48.47 47.86 46.34 48.96 47.65
63.44 62.82 62.55 62.07 61.00 59.03 58.82 56.10 52.84 51.78 50.92 50.75 50.93 50.64 48.45 47.40 46.57 45.75 48.15 46.68 46.40 47.09
63.05 62.66 61.88 60.98 60.74 59.15 56.80 54.06 52.63 52.18 50.32 48.81 49.45 47.64 46.56 44.69 45.29 46.22 45.90 45.66 45.88 46.12
62.85 62.82 60.67 60.00 59.01 58.15 56.32 55.77 53.52 50.69 48.24 49.12 47.99 45.48 43.95 44.83 44.81 45.33 44.30 44.03 44.69 44.81
60.76 59.09 58.45 56.93 55.90 54.33 53.64 52.03 49.52 48.80 49.50 46.56 45.79 44.91 43.88 44.33 43.80 43.85 44.00 44.01 44.69 44.56
58.40 56.95 56.38 54.94 53.09 51.22 50.23 49.40 49.81 48.40 45.38 45.89 44.65 43.74 43.92 43.19 42.85 43.10 43.92 43.63 45.30 45.29
57.91 57.81 56.81 55.96 54.32 52.69 51.00 48.66 46.16 45.26 45.33 43.94 43.11 43.33 42.98 43.21 44.47 43.85 43.01 42.68 44.07 44.97
55.06 53.81 52.78 52.01 50.75 50.30 49.27 47.52 45.74 42.58 43.13 43.18 43.88 40.83 39.33 40.33 44.06 41.99 41.33 41.28 43.59 44.32
51.04 49.47 48.44 47.78 46.96 45.94 45.68 45.88 44.60 44.12 44.41 44.13 45.70 38.91 38.69 37.86 41.13 40.52 40.71 42.15 42.22 41.91
49.11 47.69 47.45 47.36 46.48 46.51 46.10 45.53 45.19 45.20 45.50 45.21 42.86 38.35 38.26 37.19 40.94 41.97 41.63 41.65 41.59 41.57
49.13 48.07 47.66 46.88 46.07 46.11 45.55 45.48 44.93 42.73 42.82 42.31 43.72 38.60 37.69 38.07 40.84 40.14 40.01 40.63 40.87 40.90
48.53 47.84 46.29 45.69 45.05 44.84 44.39 44.36 44.31 43.79 43.99 40.71 42.30 38.04 36.94 37.14 39.46 37.91 38.26 39.17 39.97 37.23
46.70 45.73 45.65 45.01 44.37 43.68 43.16 42.94 42.54 41.21 41.95 41.72 40.70 40.60 36.04 35.29 36.75 35.96 34.68 35.07 36.27 38.07

GFSNIL_sfc_wetblb_048.txt.gz
Wetbulb
62.66 62.36 62.23 61.77 60.98 59.54 59.00 59.16 58.32 58.05 57.25 55.03 53.53 51.87 50.57 49.58 48.42 46.72 45.55 44.16 46.70 45.86
61.27 61.91 62.23 61.55 60.82 60.08 59.23 58.86 57.74 57.05 52.92 51.94 50.57 49.60 48.64 47.18 45.06 45.08 46.02 45.98 45.57 44.69
59.95 60.71 62.74 62.38 60.98 60.63 59.56 57.91 55.74 52.60 51.52 50.10 49.01 49.48 47.06 45.46 44.84 45.21 45.48 45.73 44.87 44.74
62.23 61.72 62.10 60.83 60.23 60.33 58.29 54.45 52.25 51.39 50.44 49.29 48.64 48.07 46.25 44.86 44.07 44.08 43.51 45.30 44.58 44.44
62.73 61.98 59.97 59.60 58.99 57.93 54.07 52.79 51.65 51.04 49.84 48.73 47.88 47.09 45.17 42.86 42.92 44.59 43.49 43.64 44.13 43.80
61.30 59.65 58.55 56.99 55.59 55.37 54.25 53.19 50.63 49.43 47.87 47.51 46.25 44.92 43.29 43.88 44.02 43.35 43.45 43.62 43.08 43.13
57.81 56.58 54.94 53.51 51.64 50.38 49.51 47.90 47.30 47.79 47.03 45.22 44.15 44.12 44.47 43.66 42.75 42.39 42.83 43.20 42.99 43.17
56.74 56.39 55.00 53.27 52.46 50.86 49.88 48.26 45.87 44.74 44.22 44.19 43.55 43.43 43.05 42.80 41.86 41.36 40.97 42.20 42.87 42.53
55.82 55.38 54.59 53.33 51.66 50.21 47.47 45.52 44.67 43.60 42.50 41.19 43.01 40.04 40.74 41.22 41.91 42.21 41.23 40.23 41.33 41.33
51.56 49.39 48.33 47.28 46.51 45.59 44.15 44.25 42.54 42.15 42.49 42.77 43.08 39.42 39.09 38.08 40.42 40.33 40.38 39.94 39.78 40.57
48.43 46.86 46.23 45.85 44.85 44.00 43.94 43.23 42.89 42.67 43.68 43.78 40.94 38.77 38.75 37.87 39.38 39.04 39.14 38.71 37.82 36.77
47.78 46.86 46.43 45.21 44.58 44.90 44.89 44.33 43.68 43.17 42.59 41.18 41.68 38.01 37.86 37.27 37.95 37.03 36.11 37.81 36.83 37.08
48.28 47.06 45.72 45.07 44.69 43.85 43.66 43.21 43.12 42.90 42.55 38.72 39.00 37.16 35.79 35.74 34.19 32.41 31.00 32.88 34.21 34.50
46.68 45.52 45.13 44.39 43.95 43.36 41.84 41.30 38.32 37.48 37.97 38.87 35.65 33.76 33.58 32.81 29.81 27.27 27.67 28.22 28.63 29.27

GFSNIL_sfc_wetblb_051.txt.gz
Wetbulb
60.31 59.99 59.84 58.81 57.99 58.58 58.76 58.46 58.13 58.20 57.37 56.00 54.97 52.74 51.44 49.96 48.84 48.49 47.39 45.52 45.86 46.87
60.20 59.87 60.11 58.79 58.99 58.50 56.80 56.26 56.08 57.02 55.29 54.58 51.95 50.44 49.79 48.64 47.67 47.38 45.13 44.50 45.57 44.91
60.87 59.11 59.54 59.47 57.84 57.84 57.60 56.26 55.24 55.16 53.44 51.70 50.05 49.01 48.07 46.85 45.83 45.27 44.74 45.44 43.83 44.71
59.39 58.54 59.60 59.43 58.80 58.40 56.76 54.84 54.16 52.29 51.59 49.85 48.83 48.17 46.46 45.46 44.68 45.16 44.30 44.31 43.85 44.15
59.69 59.36 59.02 58.16 58.16 57.84 56.12 53.44 52.01 51.50 50.31 48.87 48.08 46.95 45.62 44.10 43.78 43.81 43.67 43.67 43.85 43.84
60.05 59.93 58.53 57.56 56.32 55.04 53.00 52.17 51.12 50.40 49.22 48.05 47.21 46.00 44.86 43.36 43.86 44.14 43.79 43.55 43.28 43.08
57.06 55.90 55.62 54.42 53.08 52.11 52.61 50.46 49.21 48.85 47.91 47.13 45.84 44.49 43.93 43.79 43.61 43.61 43.17 43.15 42.81 42.86
54.68 54.03 53.40 51.93 51.07 50.28 49.13 48.04 47.61 46.13 44.86 44.36 44.11 43.76 43.68 43.77 42.70 41.67 41.22 41.88 42.39 42.09
54.89 53.97 52.54 51.08 49.92 48.80 46.58 45.34 44.36 43.60 43.45 42.72 43.05 39.95 40.42 41.44 40.84 41.12 40.62 39.63 41.22 41.25
51.90 50.74 50.81 50.25 47.68 44.38 41.88 40.79 39.97 39.56 40.11 40.09 40.62 39.21 39.13 38.28 39.85 39.69 39.80 39.55 38.90 38.30
47.25 45.50 45.27 44.43 43.30 41.58 40.91 39.74 39.46 39.69 40.11 40.11 39.79 38.42 38.55 37.57 38.95 36.76 36.66 36.49 36.34 33.90
44.53 43.68 43.21 42.08 41.29 41.32 40.89 40.24 39.90 40.37 39.63 40.06 40.06 38.00 37.66 36.86 35.50 34.74 32.49 34.30 32.72 32.81
45.30 44.24 42.95 42.12 41.82 41.09 42.41 42.14 41.03 40.48 40.32 36.90 34.20 34.87 35.59 33.74 29.25 27.69 26.55 28.64 30.40 31.56
44.34 43.23 43.14 42.69 41.63 41.01 40.22 38.74 35.52 34.49 34.30 32.82 31.99 31.33 32.08 30.79 26.33 25.60 26.13 25.84 26.03 25.84

GFSNIL_sfc_wetblb_054.txt.gz
Wetbulb
56.12 57.10 58.73 58.98 56.68 55.85 57.48 58.17 57.95 58.06 57.38 57.09 56.87 55.53 53.84 51.92 50.18 49.39 48.98 48.23 47.71 47.72
56.93 57.54 59.10 59.24 57.45 57.54 57.27 56.89 57.19 57.20 56.17 55.05 54.93 53.00 50.85 49.37 48.33 48.80 47.91 47.04 46.97 46.06
57.68 58.99 59.46 58.31 57.92 57.37 57.21 55.79 55.55 55.17 54.85 53.75 51.83 49.98 49.40 48.25 47.75 46.61 45.83 45.65 45.40 44.82
58.56 59.12 58.40 58.82 58.43 58.09 57.99 56.61 55.29 55.07 53.01 51.07 48.84 47.71 48.21 47.19 46.24 45.60 45.02 45.09 44.47 44.42
59.70 59.18 59.22 58.43 58.21 58.81 57.31 56.09 55.63 53.36 51.47 49.94 48.42 47.19 46.80 45.43 45.87 44.89 43.85 43.77 44.40 44.27
59.03 59.03 59.30 58.97 58.68 57.15 55.73 54.48 53.36 52.27 50.69 49.33 47.79 46.41 45.96 44.98 44.21 44.29 43.96 44.11 43.65 43.57
58.17 58.76 59.80 58.94 57.05 56.31 55.25 53.19 52.34 51.92 49.73 48.13 46.57 45.66 44.12 43.96 43.84 43.81 43.84 43.81 43.48 43.01
58.70 58.48 57.98 57.73 55.35 53.27 52.89 51.40 49.63 47.52 46.56 46.04 44.85 44.16 43.76 43.54 43.46 43.13 42.39 42.55 42.40 42.51
55.79 54.75 54.38 52.80 50.94 50.05 48.31 48.66 46.11 45.12 44.12 43.49 43.92 39.86 40.52 42.28 42.19 41.74 41.18 39.76 40.58 40.74
53.88 52.49 51.27 50.57 48.89 47.00 45.75 45.68 43.42 43.28 43.32 42.89 42.98 39.19 39.54 38.83 40.86 40.08 39.39 38.22 39.67 38.55
52.13 51.16 49.59 47.42 45.32 43.32 44.03 42.10 41.31 41.30 41.20 40.71 40.09 38.32 38.11 37.01 37.20 36.37 36.07 34.94 33.60 32.23
48.04 46.94 46.41 45.28 43.65 41.24 39.50 39.03 38.44 38.82 38.03 37.87 38.01 37.87 36.94 37.29 35.67 32.73 31.70 31.66 31.01 30.42
45.73 44.92 42.73 41.81 40.56 39.27 39.39 39.07 39.60 39.03 39.03 37.49 37.57 36.37 36.27 33.76 30.17 27.11 26.10 27.62 27.68 29.36
43.09 41.80 41.26 40.82 40.82 40.60 40.25 39.42 35.32 32.79 32.33 31.09 31.63 32.02 32.25 30.86 26.69 26.00 26.09 25.35 25.38 26.02

GFSNIL_sfc_wetblb_057.txt.gz
Wetbulb
54.29 54.40 53.32 52.99 54.44 54.82 54.49 55.17 56.70 57.09 58.02 58.33 56.53 55.77 55.47 55.16 54.50 52.11 50.79 49.46 48.94 49.28
53.12 53.77 54.08 54.12 55.05 56.98 55.47 55.59 55.79 57.66 57.36 55.79 55.47 55.36 53.38 51.91 50.41 49.86 49.67 49.17 48.69 47.64
52.88 54.03 54.72 55.16 56.02 57.55 57.55 56.83 55.87 55.61 55.49 54.73 54.34 53.78 51.68 48.60 47.94 48.41 48.04 47.47 46.70 45.73
53.62 54.58 55.31 55.78 57.22 57.48 57.18 57.50 57.09 56.49 55.47 54.52 52.53 50.18 48.12 46.95 47.62 47.09 46.16 46.18 45.54 44.79
55.30 55.92 56.26 56.87 58.26 58.21 57.71 57.80 57.52 57.82 55.45 53.26 52.20 51.11 49.82 47.38 47.22 46.20 45.52 45.14 44.92 44.32
57.35 57.00 57.02 57.62 58.63 59.05 59.06 58.14 56.47 55.19 53.78 51.94 51.59 49.83 49.50 47.72 46.93 45.97 45.35 44.76 44.33 44.25
57.62 57.69 57.70 58.22 58.68 59.14 59.34 56.99 54.46 53.76 52.31 50.93 49.97 49.20 47.63 46.70 45.01 44.50 44.61 44.43 44.20 43.79
58.11 58.16 58.41 58.41 58.61 58.40 56.55 55.03 53.31 52.06 50.16 49.23 47.93 46.61 44.90 44.72 44.27 43.54 42.95 43.33 43.18 42.97
57.64 57.42 57.62 58.19 56.45 54.84 53.05 52.13 50.37 48.70 47.31 46.69 45.76 40.64 40.78 43.13 43.43 43.07 42.32 41.42 41.49 41.50
57.33 57.09 55.97 53.43 51.61 50.85 50.13 48.73 46.50 46.14 45.28 45.10 44.79 39.53 40.06 39.65 42.32 41.49 40.83 40.18 39.62 37.69
55.07 53.44 51.95 50.85 48.84 46.12 46.42 45.58 45.00 44.79 45.01 43.85 42.18 38.54 38.43 37.68 39.92 38.54 37.29 36.20 35.63 32.91
52.18 50.77 49.45 47.67 46.30 45.38 44.43 43.87 43.24 43.36 42.37 40.92 39.98 37.49 36.81 37.14 35.56 33.41 31.23 30.34 29.57 28.41
49.80 48.43 46.77 45.16 43.49 42.51 42.93 41.22 40.34 38.89 39.28 37.40 37.28 36.37 36.46 34.66 31.14 28.18 27.08 27.06 26.93 29.12
47.26 46.17 44.66 42.66 41.45 41.50 41.06 37.37 33.25 30.67 31.50 32.48 33.67 34.39 34.75 33.08 30.22 27.14 25.77 25.18 24.70 24.92

GFSNIL_sfc_wetblb_060.txt.gz
Wetbulb
53.31 52.54 51.46 50.61 50.50 51.25 52.00 52.47 53.44 54.32 55.33 55.67 56.12 56.96 57.56 57.16 56.50 55.48 54.52 53.28 52.70 51.61
51.67 53.11 53.15 51.80 50.85 52.43 52.88 53.36 53.35 54.73 55.05 55.01 55.08 55.22 56.00 55.62 54.25 52.86 51.54 50.26 49.75 50.54
51.38 52.00 53.09 53.14 52.67 52.86 53.78 54.27 53.92 53.88 54.61 54.91 54.62 54.12 53.31 52.18 50.08 50.80 47.91 49.06 49.25 47.92
51.90 51.61 52.09 52.63 53.47 53.83 54.59 56.38 56.52 56.50 56.42 56.12 54.84 54.68 54.03 52.08 49.70 49.64 48.16 46.82 47.40 46.15
52.65 52.68 52.21 52.34 53.13 53.75 55.24 56.91 57.20 57.39 57.29 57.12 55.16 52.37 51.67 50.24 49.92 49.25 47.01 46.83 46.31 45.45
51.82 52.22 52.23 52.55 53.31 54.46 55.85 57.06 56.90 57.12 56.68 56.20 54.40 53.45 52.12 51.41 49.99 48.80 47.24 46.38 46.20 45.37
52.40 52.80 53.03 53.93 54.79 55.56 56.99 56.82 57.34 57.28 57.06 55.70 52.78 51.87 50.93 49.51 47.90 47.74 47.42 46.03 45.83 45.18
54.27 54.65 55.39 55.91 56.00 56.60 57.02 57.26 57.61 57.24 54.50 52.51 50.61 49.60 48.62 48.06 47.35 45.52 44.69 44.57 44.59 44.31
55.15 55.54 55.93 56.25 56.37 56.54 56.97 57.71 57.51 54.68 53.18 49.88 49.03 43.09 42.53 44.95 45.31 44.58 43.65 42.53 42.29 42.21
55.54 55.52 55.83 56.47 56.76 56.94 56.74 54.39 52.89 50.78 49.84 48.43 46.79 40.40 41.05 40.38 44.10 43.08 42.58 41.65 40.38 37.67
55.43 55.89 56.24 55.72 54.88 52.65 51.34 51.10 48.97 48.79 47.55 46.23 42.61 39.54 38.95 38.72 41.47 40.23 39.76 39.63 36.82 34.02
55.89 55.71 52.43 51.48 48.12 47.04 47.20 47.06 44.92 44.44 43.88 42.55 39.91 39.03 37.66 38.00 36.59 34.18 32.41 32.24 32.26 31.29
52.96 50.74 49.15 47.18 46.44 45.52 45.20 42.09 41.21 39.97 41.41 39.36 38.23 36.89 36.61 36.01 33.24 30.35 28.60 28.54 28.81 29.45
49.31 48.10 46.48 44.36 43.48 42.17 39.95 36.61 34.57 32.82 33.55 34.66 36.21 35.47 35.26 34.59 32.15 29.62 27.73 26.02 25.06 26.30

GFSNIL_sfc_wetblb_063.txt.gz
Wetbulb
56.31 56.11 55.75 55.57 55.83 56.62 57.73 58.69 58.67 58.87 59.58 60.19 60.72 60.97 61.22 60.79 60.79 60.25 56.19 55.37 56.17 56.72
56.51 56.48 56.41 56.84 57.24 56.83 57.00 57.46 58.03 58.84 59.01 59.79 60.44 60.91 61.26 60.90 60.66 59.42 57.98 58.85 59.46 57.92
55.80 56.88 57.20 57.61 56.93 56.95 57.66 57.24 57.51 58.12 58.64 59.22 59.84 60.25 60.38 60.11 59.32 58.10 58.08 57.76 56.51 55.53
55.67 55.94 56.57 56.84 57.29 57.75 57.92 57.82 57.79 58.13 58.20 58.22 58.52 59.03 58.75 57.43 56.91 55.75 56.43 54.17 53.27 53.29
56.03 55.72 55.28 55.05 56.11 57.44 57.63 57.95 57.69 58.15 57.76 56.25 57.09 57.52 56.15 55.99 54.79 52.78 52.12 51.21 50.69 51.60
55.85 55.96 55.17 55.25 55.73 56.82 56.70 57.26 57.90 58.01 58.24 57.88 57.30 57.03 56.35 55.71 54.18 53.45 53.40 51.32 50.37 50.43
54.92 55.41 55.87 56.38 56.32 56.42 56.74 56.65 57.43 58.49 58.22 57.96 58.08 57.57 55.71 54.19 53.00 51.90 51.45 50.69 50.00 48.82
55.87 55.99 55.99 55.96 56.26 56.32 56.72 56.96 56.86 57.41 58.30 58.92 58.55 56.76 55.85 54.50 53.88 51.53 49.11 48.08 47.84 46.79
56.36 56.08 55.98 56.27 56.15 56.63 56.82 57.36 58.03 57.44 57.97 56.76 55.45 46.50 46.68 50.98 51.12 49.31 47.04 45.22 45.18 44.39
56.49 56.50 56.70 56.77 56.98 57.26 57.60 58.17 57.71 57.24 57.29 56.45 54.67 44.32 44.68 43.96 48.63 46.99 45.35 43.79 42.02 40.00
57.14 56.80 57.09 57.48 57.65 58.29 58.22 57.30 56.78 56.19 53.56 53.36 49.32 42.47 40.84 39.61 44.98 43.18 42.75 41.65 39.33 36.15
57.22 57.10 57.20 57.26 57.86 53.83 52.39 49.97 48.34 47.78 47.42 45.94 42.12 38.42 38.59 40.29 38.76 36.09 35.04 35.12 34.85 33.85
57.49 57.23 55.06 51.22 48.76 46.88 47.22 43.91 42.91 41.92 43.07 39.85 38.71 37.04 37.37 37.32 35.15 31.76 30.89 30.92 31.01 31.10
54.62 52.71 50.55 46.88 45.47 43.73 40.56 37.66 35.41 34.13 35.64 37.07 37.72 36.48 36.20 36.06 34.57 31.66 30.11 28.16 27.47 28.35

GFSNIL_sfc_wetblb_069.txt.gz
Wetbulb
60.04 59.58 58.88 59.91 60.85 59.45 58.72 57.73 59.93 60.29 59.49 61.05 60.77 61.55 61.66 62.03 60.47 62.43 60.57 61.75 61.39 61.90
60.84 59.91 60.28 60.30 60.83 61.05 60.96 58.54 58.25 59.31 60.82 61.56 61.70 61.78 61.79 61.48 61.37 60.20 60.44 62.39 62.35 62.02
60.09 60.74 60.93 61.14 60.89 60.63 60.89 60.66 60.05 59.83 60.24 59.96 59.63 60.44 60.53 60.44 62.00 61.50 61.85 62.11 62.20 62.20
60.93 60.84 61.40 61.83 62.26 61.99 62.39 61.98 61.25 60.96 60.88 60.45 60.53 60.97 61.35 61.15 61.22 61.02 61.25 61.97 61.80 61.52
62.19 62.01 62.00 61.75 62.50 62.97 62.39 63.02 62.13 62.53 61.87 61.80 61.59 61.82 61.29 61.09 61.05 60.81 60.66 61.25 61.26 60.15
62.23 62.36 62.50 62.70 62.98 63.13 62.73 62.69 62.53 62.08 61.38 61.59 61.67 61.64 61.85 61.56 61.28 61.05 60.88 60.91 60.96 59.83
62.04 62.22 62.55 62.87 62.94 62.79 62.88 62.38 62.19 61.93 61.67 61.61 61.46 61.47 61.48 61.28 61.01 61.09 60.96 60.72 60.77 58.66
62.63 62.66 62.08 62.44 62.57 62.37 62.46 62.28 62.37 62.09 61.93 61.99 61.71 61.15 61.23 61.20 60.72 59.84 59.28 59.83 59.18 57.10
62.02 61.93 62.08 62.39 62.44 62.26 62.01 61.89 61.84 61.31 61.34 61.25 60.54 51.57 47.17 53.67 61.00 59.05 59.54 58.42 57.10 56.84
62.05 61.60 61.88 61.87 61.46 61.32 61.47 61.85 61.43 61.15 61.06 60.98 61.44 48.00 45.83 44.51 58.41 59.32 56.84 55.60 57.46 55.20
62.18 61.76 61.83 61.49 61.15 61.36 61.29 60.82 60.72 61.00 61.22 61.05 60.57 46.48 44.19 42.72 57.26 58.90 58.73 58.02 56.49 52.48
62.58 61.92 61.56 61.02 60.96 61.52 61.46 61.07 60.65 60.66 60.30 59.49 60.14 43.84 41.64 43.71 52.69 45.69 39.91 40.41 40.75 40.31
62.82 62.17 61.67 61.90 61.59 61.73 61.41 60.49 59.50 52.50 47.77 41.76 49.72 40.87 41.82 43.57 40.17 35.65 33.44 33.47 34.66 34.70
61.93 62.31 62.41 62.08 62.30 61.94 57.56 47.08 41.53 38.70 37.83 37.60 37.73 38.10 38.79 38.85 36.12 33.33 32.04 31.65 31.11 31.89

GFSNIL_sfc_wetblb_075.txt.gz
Wetbulb
57.98 56.39 55.50 54.50 53.40 54.31 56.11 56.76 58.46 57.80 59.05 57.91 57.65 59.61 58.34 58.08 58.05 57.96 57.44 56.74 56.65 56.32
58.19 57.61 57.05 55.95 54.79 54.54 56.14 57.24 57.35 58.01 57.58 58.20 57.73 57.81 57.93 57.78 57.06 57.35 57.43 56.95 56.37 56.15
57.99 58.08 57.92 57.85 55.93 55.00 55.87 56.96 57.42 57.86 58.21 57.83 57.63 57.65 57.14 56.39 56.25 56.29 56.55 56.80 56.17 55.86
58.16 58.48 58.45 57.34 57.22 56.75 56.27 56.12 56.88 57.68 58.20 58.18 57.31 56.80 56.37 56.25 55.78 55.69 55.80 56.41 56.10 56.02
58.23 58.72 58.16 57.26 56.92 57.20 57.61 57.70 56.98 56.80 57.02 57.56 57.26 56.66 55.68 55.37 55.82 55.53 55.38 55.75 55.79 55.52
56.29 57.34 57.60 58.10 58.08 57.20 56.82 57.81 58.04 57.41 56.41 56.26 56.58 56.31 55.83 55.62 55.49 55.64 55.78 55.47 54.54 54.73
56.00 56.24 56.71 57.95 58.40 58.32 57.63 57.11 57.55 57.68 57.00 56.44 56.39 56.21 56.02 55.78 55.37 55.41 55.64 55.50 55.24 55.13
57.18 57.27 57.12 57.05 57.75 57.79 57.75 57.74 57.58 57.30 57.47 57.20 56.69 56.67 56.17 56.25 55.62 55.13 54.95 55.17 55.50 55.45
58.00 57.92 57.53 57.47 57.54 57.50 57.51 57.63 57.62 57.30 57.17 56.84 57.11 50.34 46.55 51.69 55.75 55.56 54.97 54.40 55.17 55.68
57.38 57.85 58.21 58.25 57.93 57.56 57.46 57.62 57.17 57.32 57.30 56.77 57.15 47.12 45.66 44.52 55.56 55.88 55.92 55.48 55.45 54.91
56.77 57.13 57.51 58.08 58.04 57.93 58.25 57.73 57.61 57.59 57.55 57.40 57.60 46.42 44.67 42.38 51.42 55.16 55.43 55.19 55.02 54.57
51.15 51.70 57.43 56.41 57.22 57.96 57.60 57.48 57.67 57.86 57.17 56.69 57.44 45.79 45.14 44.25 52.56 53.21 53.79 42.80 41.03 45.58
43.97 45.47 46.77 50.01 51.95 56.17 57.09 57.00 57.22 55.38 47.98 40.12 49.70 38.49 40.53 42.12 49.85 44.93 36.46 34.59 35.12 35.72
39.11 40.34 39.79 43.71 44.27 44.52 48.99 49.22 44.59 41.43 36.65 35.97 36.60 37.59 38.59 39.95 40.84 40.41 33.49 32.19 32.03 33.52

GFSNIL_sfc_wetblb_078.txt.gz
Wetbulb
57.31 56.53 56.15 55.78 54.91 55.49 56.24 56.95 57.98 57.71 57.57 57.36 57.09 57.66 58.10 57.37 56.98 57.02 56.28 54.76 55.13 56.00
57.49 56.81 55.22 55.20 54.93 54.14 55.71 57.12 57.47 57.46 58.07 57.82 57.69 57.78 57.69 57.35 56.68 57.10 56.26 56.43 56.20 55.78
57.70 57.44 56.09 54.82 53.41 53.79 54.67 56.31 57.04 57.36 56.76 58.00 57.82 58.02 58.04 57.21 57.00 57.10 56.70 56.71 55.95 56.12
58.02 57.83 57.30 56.02 54.60 53.61 54.08 55.17 55.83 56.89 57.26 57.30 57.88 57.53 57.15 57.45 57.06 56.62 56.53 56.40 55.48 55.34
57.93 58.00 57.54 57.37 56.97 55.65 53.94 54.33 55.35 56.22 56.70 57.17 57.26 57.12 57.15 56.54 56.29 55.20 55.48 55.48 55.30 54.89
56.82 57.26 57.50 57.61 57.65 57.50 56.03 55.02 54.54 55.51 55.77 56.18 56.72 56.54 56.02 55.59 55.20 55.04 54.82 54.85 54.29 54.57
56.10 56.55 57.04 58.04 57.91 57.17 57.48 57.19 56.80 55.69 55.66 55.71 56.06 56.65 56.41 55.74 54.96 54.39 54.20 54.31 54.47 54.30
55.77 56.32 56.39 56.67 57.17 58.00 57.62 57.01 57.07 57.15 56.91 56.34 56.09 55.73 55.77 55.82 55.07 54.35 54.12 54.32 54.59 54.96
56.37 55.89 55.79 55.93 56.02 56.41 56.87 57.72 57.49 56.41 56.47 56.37 56.47 49.78 46.61 51.61 54.83 54.69 54.01 53.43 53.90 54.44
56.76 56.39 56.27 56.42 55.99 55.76 55.94 56.59 56.43 56.30 56.28 55.95 56.38 46.96 45.33 44.17 54.52 54.74 54.21 53.92 53.86 53.65
48.10 50.59 52.87 56.99 56.45 56.24 56.46 56.18 56.15 56.15 56.52 56.41 56.66 45.95 44.78 43.06 52.09 54.75 55.28 55.32 54.96 54.39
45.59 46.30 47.95 49.01 49.55 54.44 56.58 56.62 56.53 56.77 56.27 56.08 56.43 43.54 44.21 44.27 53.37 54.18 54.68 55.21 55.43 53.72
40.72 42.05 42.48 44.26 44.45 44.80 47.10 52.28 55.47 45.95 38.17 35.55 37.86 35.01 36.35 39.18 49.99 51.76 51.28 40.68 36.83 35.17
34.68 36.28 36.68 38.88 40.27 40.91 42.96 40.31 37.69 34.35 33.39 33.01 32.65 33.32 34.57 35.19 37.57 41.22 33.85 32.70 31.92 32.84

GFSNIL_sfc_wetblb_084.txt.gz
Wetbulb
56.49 56.65 56.89 57.46 57.37 57.48 57.79 57.97 58.49 58.39 58.63 58.14 57.97 57.74 57.61 57.47 56.99 56.02 55.20 53.96 53.36 53.81
56.17 55.73 56.05 56.02 56.88 57.34 57.62 57.87 57.97 58.15 57.99 58.34 58.48 57.84 57.15 57.20 56.94 56.79 55.98 55.50 55.16 54.51
56.21 56.24 56.11 55.90 54.26 54.82 56.21 56.99 57.21 57.29 57.39 57.41 57.80 57.98 57.05 56.34 56.52 56.61 56.62 56.60 55.60 55.26
56.63 55.68 54.80 54.35 53.45 53.53 53.61 55.05 56.38 57.09 57.18 56.68 56.90 56.98 56.51 56.16 56.16 55.61 55.71 55.99 55.70 55.48
56.47 56.10 55.81 55.30 54.30 53.00 52.93 53.79 54.94 56.10 56.42 56.56 56.42 56.63 56.55 56.29 56.64 55.80 55.58 55.75 55.55 55.31
56.73 56.53 55.42 54.69 53.89 52.21 52.10 52.58 53.67 54.65 55.32 55.72 56.14 56.43 56.30 56.12 55.56 55.50 55.48 55.71 55.88 55.47
54.06 55.48 56.49 56.30 55.50 54.10 53.11 51.82 52.40 54.00 54.49 54.35 54.49 55.70 56.14 56.09 55.81 55.79 55.75 55.96 56.00 55.94
53.72 54.08 54.18 54.32 54.79 55.36 55.03 54.04 52.80 52.72 53.34 53.87 54.12 54.77 54.95 55.11 54.77 54.63 54.41 54.25 54.59 55.03
53.94 54.12 53.74 53.62 53.74 53.79 53.95 54.27 53.99 53.53 53.73 53.26 53.64 47.17 45.08 51.02 55.10 55.33 54.85 54.44 54.40 54.40
51.32 54.55 54.56 54.76 55.10 55.04 55.38 55.20 54.43 54.55 55.21 55.11 54.81 43.45 44.10 43.48 53.48 54.29 54.42 54.59 54.34 53.77
44.06 45.06 46.61 47.92 47.84 51.25 53.65 55.10 55.24 55.04 55.32 55.60 39.75 35.93 36.60 36.78 47.95 53.30 54.23 54.44 54.55 54.03
38.84 39.61 40.60 40.16 40.89 43.39 46.71 44.39 39.35 38.23 39.19 38.94 35.56 35.02 35.46 36.57 43.69 49.18 52.08 51.59 36.96 36.83
35.77 35.73 36.01 36.77 37.70 39.53 38.82 35.79 35.10 32.50 32.87 32.72 32.81 34.06 35.04 35.85 40.94 41.17 36.24 33.21 32.95 33.22
32.91 33.20 33.68 34.12 34.88 35.44 34.69 32.95 31.36 29.94 29.84 30.08 31.42 31.62 33.25 34.36 34.24 33.54 32.17 31.38 30.61 31.39

GFSNIL_sfc_wetblb_087.txt.gz
Wetbulb
58.63 58.68 58.44 58.08 57.99 58.03 57.23 56.79 57.10 56.66 56.77 57.85 57.99 57.83 57.39 57.82 58.15 57.27 58.29 57.97 58.28 58.31
58.19 58.09 58.17 58.67 58.22 58.18 58.87 58.35 57.19 56.55 55.93 55.79 55.42 56.57 57.74 57.31 56.85 57.32 58.63 58.63 58.53 58.09
56.96 57.48 58.18 57.83 57.65 57.84 58.10 58.77 58.51 57.96 57.10 56.45 56.28 55.29 56.40 56.88 57.97 57.65 57.36 57.29 56.24 56.04
56.77 56.91 57.22 57.36 58.39 57.77 57.40 57.73 57.81 57.94 57.85 57.86 56.86 55.62 55.10 54.79 56.73 56.80 56.50 56.68 56.27 55.91
57.63 56.69 56.43 56.76 57.16 57.95 58.52 59.22 58.85 58.21 57.55 57.35 57.37 57.60 56.78 55.35 55.60 56.54 56.53 56.43 56.32 56.04
57.40 57.08 56.52 56.59 56.34 56.12 56.98 58.00 58.45 58.77 58.58 58.37 57.27 56.65 56.90 57.10 56.98 56.20 56.16 56.23 56.07 55.86
57.48 57.97 57.47 57.22 56.25 55.64 56.27 56.99 58.07 58.47 58.82 58.99 59.03 58.99 57.90 57.23 57.29 57.18 57.00 57.23 57.95 58.23
58.43 59.20 59.12 58.84 58.60 58.13 57.08 56.56 56.84 57.43 58.14 58.60 58.77 58.53 58.77 57.97 57.36 57.03 56.89 57.59 58.03 59.41
57.44 58.01 58.30 58.43 58.43 58.64 58.33 57.58 56.95 56.42 56.97 56.76 55.57 47.62 46.22 52.64 56.78 56.98 56.88 57.23 58.41 58.50
51.32 51.15 51.86 54.80 56.12 56.78 56.81 57.52 56.62 56.27 55.56 55.08 49.77 37.02 39.02 40.83 55.98 56.67 56.32 56.44 55.95 55.53
43.45 43.77 44.28 45.26 46.21 48.73 47.82 45.02 46.78 44.48 47.44 40.38 36.41 35.62 35.93 35.71 48.17 51.52 53.88 48.48 42.80 43.85
39.14 39.20 39.50 39.91 40.83 42.61 40.47 37.54 36.28 35.67 36.42 35.56 34.27 34.72 35.50 38.63 46.07 46.63 38.44 35.68 34.94 35.10
35.57 36.10 35.69 36.94 36.75 36.48 35.60 34.11 33.09 31.83 32.38 32.59 32.34 33.72 35.08 37.63 41.97 36.70 33.17 31.90 31.83 32.37
33.83 33.91 34.33 34.33 35.14 34.60 33.31 32.10 30.67 29.89 30.18 30.80 31.31 31.70 32.92 33.78 33.76 31.82 29.91 28.77 28.72 29.84

GFSNIL_sfc_wetblb_090.txt.gz
Wetbulb
62.36 61.51 61.36 59.43 58.32 56.28 56.64 56.36 56.72 56.44 56.88 57.93 58.99 60.01 60.54 60.85 60.22 60.73 61.20 61.28 61.50 61.12
61.49 60.77 59.91 59.37 58.85 57.50 57.58 57.16 57.47 57.37 57.86 58.48 58.56 58.72 59.71 59.38 57.65 59.00 60.32 61.18 61.34 60.77
60.22 60.32 60.70 60.41 58.89 58.45 57.62 57.26 56.58 56.38 56.58 56.65 56.20 56.66 56.81 57.12 57.36 57.35 57.33 58.21 59.58 59.00
59.11 59.64 59.53 59.22 58.72 58.12 58.68 57.40 56.36 55.57 55.43 54.55 54.23 54.65 53.76 53.69 55.53 57.42 57.13 57.65 58.91 58.53
58.38 59.68 58.45 58.62 59.06 58.11 58.35 58.86 58.75 58.03 57.30 56.63 55.63 54.58 53.97 53.74 53.77 55.94 56.37 58.02 57.00 56.93
57.97 59.14 59.46 59.84 60.37 61.02 59.81 59.05 58.71 58.13 57.68 57.30 56.68 55.43 54.92 54.57 53.44 54.39 56.18 57.50 58.10 57.75
58.72 58.35 58.78 59.32 59.59 59.71 60.53 59.80 60.13 59.96 59.09 58.67 58.33 58.10 57.00 55.54 55.81 55.42 56.58 57.32 57.28 57.36
58.29 58.59 58.61 58.61 58.55 58.17 58.09 59.20 60.43 60.10 60.05 60.15 59.49 58.96 58.60 58.49 57.96 57.01 58.59 59.73 59.00 59.27
58.81 58.99 59.46 58.97 59.24 58.98 57.96 57.79 57.66 57.96 59.22 60.01 58.25 37.97 40.56 53.41 59.77 59.32 59.00 58.54 59.04 59.62
49.91 50.16 50.72 55.60 57.37 57.85 58.34 59.17 57.52 57.10 57.48 47.02 42.58 36.32 37.35 37.19 55.68 58.11 57.84 57.19 56.92 56.71
43.31 43.72 45.26 46.01 46.51 44.43 44.00 42.87 42.72 41.73 40.18 38.12 36.33 35.58 36.31 36.10 49.25 54.02 40.59 38.76 39.52 42.19
39.34 39.89 40.19 39.35 39.39 39.69 37.56 35.93 35.80 36.04 35.80 35.32 34.15 34.96 36.15 41.26 43.72 37.58 34.48 33.59 34.03 35.11
36.50 36.36 36.35 36.12 35.57 35.09 34.47 33.19 32.78 32.09 32.49 32.55 32.34 33.94 35.32 39.16 36.87 32.34 30.84 30.87 31.24 31.97
35.11 34.67 34.76 34.70 34.41 33.62 32.47 31.85 30.75 30.13 30.68 30.76 31.77 31.91 33.00 34.04 32.80 30.62 29.33 28.73 28.58 29.93

GFSNIL_sfc_wetblb_093.txt.gz
Wetbulb
64.10 62.34 63.00 62.79 61.26 59.57 57.62 58.35 59.53 60.08 60.08 60.15 60.20 60.20 60.77 61.49 62.49 62.39 62.31 61.18 61.37 60.98
62.58 62.08 62.36 61.72 60.00 58.32 57.65 56.84 57.32 58.26 59.08 59.55 59.91 59.99 59.96 60.05 59.98 60.93 61.24 61.45 62.02 60.68
61.25 62.05 62.26 61.09 58.51 57.33 57.62 56.98 56.74 56.98 57.18 58.04 58.94 59.23 59.02 58.95 59.86 60.61 61.30 60.72 60.40 59.73
60.22 60.87 61.34 61.24 59.27 57.43 57.02 56.88 56.81 57.11 57.14 57.20 57.54 58.37 58.59 59.12 58.59 58.52 58.12 57.40 57.38 57.82
60.24 60.09 60.08 59.71 59.02 58.12 56.81 56.68 56.51 56.10 55.74 55.08 54.91 55.20 54.94 54.53 55.09 54.61 54.61 55.91 56.84 57.12
59.62 59.25 58.75 58.92 59.67 58.85 57.94 57.03 56.47 56.00 55.56 54.45 54.06 53.89 54.22 53.63 53.60 53.97 54.12 55.34 57.33 57.03
60.15 60.06 59.86 60.47 60.69 59.20 59.76 58.39 58.28 58.07 57.51 56.90 55.96 55.16 54.53 53.98 53.73 53.79 54.31 56.00 57.42 58.02
59.94 60.10 60.60 60.21 60.11 60.56 60.78 60.05 59.63 59.59 59.09 58.66 57.89 56.64 55.64 55.22 54.79 54.32 53.87 55.56 57.58 58.19
59.65 58.74 59.03 59.56 59.34 58.98 59.21 59.49 59.92 59.62 59.84 59.23 45.25 37.51 38.88 50.60 56.53 56.03 57.18 55.70 56.87 58.81
51.45 51.45 51.96 55.43 54.94 54.59 56.58 57.17 53.36 51.94 46.23 42.04 39.86 36.46 37.84 37.98 54.12 56.02 52.11 50.16 49.42 54.51
44.82 44.73 45.05 45.57 44.18 42.43 41.67 41.93 41.99 40.83 40.42 39.09 36.65 35.87 37.05 37.49 49.33 40.89 38.17 37.46 38.93 39.75
39.32 39.06 39.00 37.65 37.37 37.33 36.38 35.17 34.46 34.84 34.97 35.06 34.61 35.77 37.53 42.50 40.50 35.92 33.67 33.47 33.97 33.76
35.85 35.34 34.59 34.65 33.97 33.88 33.51 32.43 32.18 31.22 32.01 32.53 32.54 34.54 35.94 36.32 34.40 31.28 30.37 31.00 31.19 32.10
35.10 34.38 34.14 33.80 33.40 32.84 32.06 31.54 30.70 30.11 30.06 30.02 31.30 32.73 34.03 33.73 32.13 31.12 29.75 29.24 29.05 30.76

GFSNIL_sfc_wetblb_096.txt.gz
Wetbulb
63.33 63.35 62.39 61.33 61.97 60.80 59.64 59.79 60.91 60.52 60.60 60.53 60.29 60.39 60.58 60.22 59.92 59.68 59.40 59.13 59.24 58.81
63.11 62.07 61.27 61.50 61.08 59.95 58.83 58.73 59.35 59.93 59.93 60.12 59.97 60.05 60.25 59.87 59.06 59.02 59.68 59.27 59.37 58.45
61.12 61.47 61.48 60.91 59.35 58.08 57.96 57.62 57.61 58.01 59.61 59.54 59.62 59.79 59.93 59.47 59.56 59.26 59.39 59.62 58.80 57.95
60.16 60.49 60.70 60.19 58.79 57.87 57.09 56.97 56.79 56.85 57.17 58.81 59.03 59.34 59.20 59.14 59.05 58.65 58.70 58.37 57.68 57.36
59.57 60.10 60.40 59.16 58.50 57.51 56.71 56.96 56.81 57.01 56.59 56.23 57.25 59.00 58.44 57.84 57.95 58.04 57.32 56.56 56.21 56.15
58.88 59.06 59.02 59.13 58.39 57.04 56.65 56.51 56.45 56.01 55.07 54.73 54.60 54.40 55.91 55.97 55.25 55.23 55.15 55.61 55.41 55.69
58.11 58.25 58.47 58.97 58.61 57.69 56.82 56.09 55.79 55.89 55.13 54.52 54.01 54.03 53.81 53.45 53.35 53.81 54.02 54.01 54.15 54.33
58.67 58.76 59.26 59.62 58.69 58.88 57.86 56.89 56.63 56.68 55.87 55.04 54.56 54.45 53.78 53.63 53.21 53.07 53.52 54.42 55.10 55.71
58.50 59.09 58.96 58.83 59.20 59.00 58.67 58.35 58.00 57.26 57.15 54.73 42.68 37.84 40.81 50.89 54.12 54.06 53.94 52.74 53.47 54.33
50.88 50.48 49.51 49.86 49.12 47.92 49.55 47.63 45.44 43.92 42.18 39.29 38.79 36.85 38.80 43.23 54.05 53.76 51.10 50.00 50.77 49.44
43.71 42.90 42.54 41.93 41.00 40.00 40.01 39.87 39.28 38.45 38.44 37.37 36.89 36.83 38.14 40.76 42.43 38.93 36.93 37.22 38.34 39.30
38.95 38.04 37.00 35.72 35.90 36.05 34.63 33.83 33.28 33.58 33.71 34.26 34.37 35.80 37.17 39.50 36.60 33.61 32.44 33.09 33.99 34.13
35.09 34.82 34.14 33.89 33.28 33.19 32.50 31.33 30.97 30.34 31.49 32.65 32.74 34.46 35.17 35.04 33.41 31.23 30.83 31.42 31.73 33.08
34.42 34.04 33.84 33.61 33.33 32.69 31.74 30.93 29.72 29.00 29.22 30.07 31.46 32.95 33.65 33.52 31.99 30.64 29.52 29.48 30.17 31.28

GFSNIL_sfc_wetblb_099.txt.gz
Wetbulb
63.03 62.95 62.25 60.36 60.37 59.84 60.01 59.96 60.17 60.75 61.32 61.42 61.32 61.08 61.07 60.74 60.63 60.02 59.39 58.86 58.74 58.05
62.98 62.24 60.80 60.84 60.52 59.03 57.79 59.05 60.21 60.92 60.62 60.69 60.58 60.51 60.53 60.28 59.84 59.77 59.54 59.01 58.96 58.58
60.65 60.86 60.52 59.81 58.04 56.61 56.59 57.84 57.89 59.35 59.93 60.11 60.16 59.96 60.03 59.67 60.06 59.56 59.20 59.07 58.76 58.71
59.57 60.19 59.76 58.67 57.30 56.98 57.07 56.79 56.75 57.11 57.93 59.01 59.41 59.59 59.35 59.39 59.34 58.65 58.59 58.88 58.44 58.17
59.46 59.62 59.28 58.26 56.59 57.35 56.61 56.83 56.65 56.81 57.13 57.45 58.57 59.05 58.97 58.39 58.54 58.08 57.91 58.14 58.02 57.67
58.62 59.15 58.37 58.08 57.27 57.03 56.73 56.59 56.77 56.37 55.70 55.20 56.63 58.49 58.60 58.73 58.26 58.05 57.89 57.98 57.64 57.39
57.85 58.19 58.46 57.95 57.04 56.88 56.74 56.23 56.11 55.87 55.37 55.21 54.50 55.70 57.25 57.07 57.29 57.01 56.91 56.69 56.87 56.60
57.76 58.07 57.90 57.92 57.20 57.06 56.43 56.11 56.30 55.69 55.07 54.70 54.41 52.30 54.52 55.03 55.51 54.99 54.24 54.86 55.15 55.17
56.95 58.17 57.84 58.08 57.66 57.49 56.55 56.17 55.95 55.71 55.17 47.08 43.02 38.09 41.42 50.50 53.55 53.78 53.42 53.09 54.06 55.13
47.54 47.49 47.95 47.91 46.42 46.24 44.71 43.39 42.57 41.63 41.47 39.52 39.18 37.40 39.38 42.18 53.56 53.04 52.40 51.92 52.80 52.59
40.34 40.03 40.42 40.15 39.08 38.13 37.66 37.10 36.87 36.74 37.15 37.10 36.94 38.05 38.79 38.71 39.86 36.92 36.09 36.69 38.32 40.43
35.63 35.13 34.86 34.05 34.23 34.63 33.85 33.06 32.79 33.53 33.91 33.97 34.65 36.29 36.55 36.49 35.00 33.36 32.65 33.44 34.82 35.41
34.16 33.65 32.87 32.59 32.03 32.20 31.78 30.99 31.06 30.67 31.87 33.18 33.04 35.01 35.41 34.79 33.32 31.21 30.95 31.64 32.28 33.87
31.32 32.69 33.60 33.32 33.05 32.22 31.26 30.58 29.75 29.23 29.99 30.92 32.09 33.02 33.69 33.24 31.50 30.42 29.86 30.12 30.59 31.90

GFSNIL_sfc_wetblb_102.txt.gz
Wetbulb
62.25 61.64 61.36 60.91 60.08 60.53 60.58 60.11 61.22 61.71 61.85 61.75 61.85 61.76 61.46 60.95 60.69 60.44 60.03 59.07 59.18 58.49
61.15 61.15 60.97 60.03 60.64 60.63 60.15 59.75 60.47 60.62 60.35 61.23 61.45 61.35 60.97 60.51 60.24 60.04 59.90 59.34 59.26 58.72
61.16 60.17 59.79 60.03 60.12 59.47 58.71 59.03 58.92 59.45 60.15 60.49 60.45 60.76 60.63 60.13 60.37 59.91 59.61 59.54 58.74 58.57
58.98 59.37 58.94 59.25 58.44 57.64 56.82 56.30 57.35 58.49 58.77 59.41 59.69 59.88 59.73 59.77 59.88 59.34 59.15 59.18 58.74 58.17
59.61 59.45 58.53 57.96 57.64 57.06 55.38 55.90 56.76 55.42 56.72 57.10 57.81 59.35 58.99 58.79 59.07 59.02 58.52 58.36 58.36 57.99
58.68 58.55 58.10 57.64 57.20 56.26 56.48 56.38 56.16 56.40 56.30 56.26 56.36 57.66 58.62 58.84 58.41 58.58 58.56 58.41 58.14 57.96
57.92 58.18 58.14 57.80 56.72 56.04 55.98 56.28 56.24 56.26 55.80 55.14 54.78 55.78 58.01 58.11 58.08 58.32 58.16 58.20 58.54 58.27
57.88 58.31 58.02 57.04 56.70 56.60 56.68 56.30 56.12 55.63 55.16 54.66 51.37 47.12 49.59 57.85 57.75 57.49 57.39 57.72 57.76 58.10
47.35 56.72 56.68 57.06 56.98 55.44 52.31 53.61 53.26 53.25 51.76 46.96 44.37 37.52 39.42 49.85 55.50 56.12 55.82 55.66 56.18 54.24
39.33 42.73 44.23 45.27 43.81 42.93 42.21 41.54 40.52 40.66 41.05 39.91 39.34 37.53 39.95 42.24 50.73 46.74 48.53 51.33 53.07 49.30
35.54 36.10 37.21 37.62 36.68 36.17 36.12 35.62 35.62 35.59 36.18 36.66 36.91 36.49 37.78 37.66 39.57 37.59 37.01 38.16 41.17 44.22
34.31 33.26 33.29 32.76 32.92 33.15 32.60 32.37 32.04 33.04 33.37 33.88 34.36 35.34 35.81 36.79 35.45 33.91 33.22 34.62 36.40 38.04
31.77 32.19 32.22 32.00 31.40 31.47 31.28 30.48 30.91 30.69 31.68 33.01 32.58 34.50 34.54 34.53 33.42 31.69 31.72 32.18 33.30 34.40
28.40 30.24 31.14 31.70 31.85 31.32 30.67 29.98 29.37 29.16 30.16 30.79 31.95 32.58 33.58 33.30 31.79 30.99 30.61 30.80 31.21 32.27

GFSNIL_sfc_wetblb_105.txt.gz
Wetbulb
62.62 61.82 61.98 61.92 62.75 61.76 61.75 62.55 62.64 62.62 62.61 62.66 62.32 62.12 62.16 61.79 61.51 61.08 60.47 59.64 59.68 58.77
61.57 60.39 60.69 60.75 60.98 61.34 60.66 59.76 61.02 62.01 61.84 61.64 61.60 61.70 61.40 60.90 60.26 60.62 60.29 59.97 59.49 59.14
60.52 60.47 59.64 59.42 58.64 58.76 58.72 59.40 59.38 59.50 59.95 60.27 60.80 61.01 60.90 60.58 60.17 59.83 59.97 60.02 59.21 59.17
59.41 58.82 59.02 58.86 58.06 58.78 59.02 58.74 58.91 58.95 58.83 59.09 59.80 60.22 60.20 60.28 60.01 59.43 59.39 59.69 59.17 58.60
58.60 58.88 58.56 57.92 58.08 57.78 57.50 57.42 58.02 57.56 57.66 57.82 58.00 59.12 59.26 59.16 59.42 59.05 58.75 59.00 58.63 58.42
58.08 57.70 57.44 57.50 57.20 56.81 56.56 56.12 55.57 56.19 55.89 55.87 56.11 56.01 56.59 57.36 58.52 58.69 58.59 58.81 58.55 58.26
54.25 57.76 57.20 57.36 56.85 56.66 56.61 54.85 55.27 56.07 55.93 55.67 54.91 55.01 55.03 56.13 57.20 57.59 58.52 59.04 58.94 58.91
46.34 56.68 57.56 56.58 56.26 55.97 55.69 56.38 56.26 55.85 55.39 54.35 51.25 45.85 43.25 48.12 56.31 57.58 57.50 57.74 58.28 58.45
39.51 41.47 43.78 51.47 55.09 52.39 49.60 49.11 48.34 47.00 47.79 45.32 44.30 37.22 38.27 42.21 53.04 55.83 57.16 56.58 57.16 58.07
35.81 35.83 36.48 38.41 39.78 40.61 40.91 40.23 39.29 39.53 40.17 38.88 37.27 36.71 38.84 40.42 46.20 45.07 43.14 46.93 53.24 50.97
33.80 33.18 33.47 33.15 33.25 34.23 35.22 35.25 35.24 35.24 35.97 35.93 35.62 35.75 36.99 37.24 39.53 37.67 37.19 37.96 39.94 45.12
31.87 32.13 31.67 31.21 31.24 31.45 32.04 32.08 32.09 32.97 33.17 33.19 33.46 35.14 35.43 36.26 35.65 34.10 33.61 34.40 36.12 37.27
28.77 29.56 30.58 30.45 30.16 30.93 31.22 30.58 31.02 30.71 31.64 32.65 32.39 34.27 34.52 34.41 33.41 31.87 32.42 32.69 32.60 33.84
27.45 27.96 28.15 28.92 29.87 29.85 30.03 30.50 29.78 29.43 30.05 30.77 31.70 32.47 33.53 33.38 31.97 31.18 30.59 30.62 31.01 31.85

GFSNIL_sfc_wetblb_108.txt.gz
Wetbulb
63.15 61.95 62.11 62.67 62.98 62.88 62.11 63.02 63.08 62.99 63.00 63.22 63.27 62.97 62.52 62.11 61.73 61.64 61.07 60.56 60.17 59.80
63.40 62.20 61.48 61.96 62.26 62.98 62.07 61.23 61.31 62.39 62.42 62.81 62.49 62.21 61.82 61.78 61.18 61.20 61.19 60.72 60.27 59.69
61.64 61.09 60.34 60.30 60.71 61.08 61.02 60.48 61.34 61.10 61.43 61.47 61.59 61.37 61.21 60.98 61.20 60.55 60.60 60.55 59.81 59.60
60.61 60.32 60.38 60.24 60.10 60.00 59.18 59.12 59.66 60.12 59.96 59.56 59.98 60.09 60.09 60.44 60.23 59.68 59.74 59.63 59.18 58.97
59.22 59.66 59.30 58.94 58.74 58.56 58.24 58.46 58.08 58.42 58.05 58.26 58.32 58.78 59.28 59.26 59.76 59.21 58.91 58.92 58.95 58.76
51.55 58.34 57.98 57.92 57.86 57.88 57.88 57.74 57.42 57.37 57.21 57.03 56.79 56.47 56.53 56.53 56.81 57.71 58.67 58.77 58.89 58.77
43.35 50.85 57.33 57.39 57.17 57.11 57.09 56.29 55.97 55.95 55.59 55.61 55.11 55.01 53.20 52.39 53.21 55.27 56.87 57.44 58.43 59.01
39.48 41.69 45.33 52.28 55.79 55.91 55.73 55.87 55.95 55.93 55.33 53.25 49.44 43.19 43.13 47.09 49.09 52.10 54.35 56.25 57.54 58.10
36.50 36.36 37.52 38.24 39.91 41.05 41.77 43.02 44.94 45.43 45.64 42.84 42.34 36.82 38.14 39.77 50.67 49.89 47.75 51.32 56.47 57.95
33.81 32.90 33.85 34.32 34.39 34.75 34.77 35.90 35.98 37.05 38.37 37.42 36.48 36.22 38.00 37.75 44.39 42.95 41.73 42.15 44.29 49.67
31.55 31.79 32.31 32.33 31.76 32.08 32.50 32.31 32.61 32.91 34.07 34.67 34.96 35.45 36.40 36.51 38.74 37.38 36.19 36.51 39.11 41.54
29.26 29.13 30.51 30.45 30.85 31.14 30.74 30.52 30.61 31.27 31.67 32.07 32.76 34.81 35.17 35.72 35.55 34.00 33.14 33.79 34.99 36.21
28.93 28.52 28.03 28.58 29.97 31.01 31.16 30.37 30.34 29.77 30.28 31.01 30.43 32.83 34.34 34.01 33.42 31.67 31.87 31.93 32.39 33.67
27.15 27.91 28.87 28.77 29.09 29.60 29.85 30.15 29.78 29.36 29.77 29.72 30.40 30.31 31.79 31.82 30.66 30.18 29.40 29.30 29.69 31.24

GFSNIL_sfc_wetblb_111.txt.gz
Wetbulb
64.05 64.24 65.74 66.19 65.86 65.35 64.84 64.07 64.40 64.26 64.28 64.17 64.05 63.93 64.15 63.72 63.08 63.02 62.31 62.37 61.91 61.46
63.98 64.00 64.68 65.81 66.51 66.42 66.04 64.56 64.49 64.51 63.45 63.67 63.52 63.14 63.71 63.70 62.40 62.44 62.31 62.19 62.13 61.63
64.31 63.58 63.87 65.06 65.26 65.48 65.52 64.16 63.73 63.57 63.31 63.20 62.63 63.25 62.70 62.67 62.59 61.89 61.91 61.92 61.52 61.13
61.71 62.57 63.24 62.99 64.93 64.93 63.89 62.60 62.73 63.30 64.07 62.87 61.56 62.29 62.06 62.05 61.59 61.00 61.19 61.23 61.53 60.96
51.65 60.81 60.76 60.82 60.85 61.42 60.80 62.42 62.54 62.20 61.28 60.60 60.98 61.25 60.66 59.88 60.38 60.42 60.68 61.15 60.77 59.99
45.35 50.08 58.98 58.74 58.74 59.30 59.38 59.38 59.65 60.31 60.28 59.63 59.20 58.82 58.70 59.22 58.58 58.87 58.94 59.51 59.66 60.25
40.57 43.54 47.20 55.63 56.73 57.41 57.91 57.57 57.77 58.03 57.13 56.81 55.33 52.70 53.03 54.13 54.80 55.26 56.24 57.54 58.60 58.08
38.74 38.81 41.02 41.82 43.88 45.61 44.43 44.75 45.97 49.99 47.94 46.79 42.55 39.55 41.26 46.98 51.00 53.17 54.43 55.22 55.76 57.48
36.36 36.27 35.55 36.80 37.60 39.03 38.45 38.21 37.97 38.24 38.21 37.38 37.75 35.94 37.21 39.14 47.09 51.72 50.54 49.50 50.50 52.77
32.64 33.70 32.43 34.23 34.30 33.25 33.67 34.32 33.55 34.35 34.82 33.98 33.90 35.40 36.32 36.78 44.04 42.65 41.03 41.45 42.49 44.96
30.26 30.72 31.74 32.13 31.64 31.76 31.76 31.52 31.19 31.34 31.92 31.56 32.11 34.07 35.07 35.99 37.59 36.13 35.25 35.68 37.17 38.93
29.03 29.19 29.73 30.27 30.98 31.45 31.07 30.46 30.21 30.78 30.34 29.76 30.22 32.60 33.61 34.56 34.35 33.29 32.41 33.03 33.92 34.86
28.59 28.91 29.06 29.88 30.37 31.14 31.21 30.39 30.17 29.48 29.48 30.08 29.40 31.10 31.61 30.97 31.09 29.91 29.95 30.70 31.29 32.24
27.05 27.94 28.90 30.07 30.57 31.74 31.22 30.83 29.83 29.29 29.67 29.18 29.39 29.83 30.20 29.93 27.89 27.29 26.88 26.57 27.16 29.14

GFSNIL_sfc_wetblb_114.txt.gz
Wetbulb
56.56 62.40 65.40 66.53 66.43 67.07 65.51 65.21 65.28 65.61 65.42 65.50 65.74 65.50 65.46 64.60 64.19 64.42 64.55 65.47 65.64 65.35
55.91 63.15 65.78 66.77 67.79 67.16 66.66 65.20 65.40 65.35 64.64 64.91 65.11 64.95 64.73 63.73 63.59 63.91 64.12 64.86 65.85 65.22
53.82 59.43 66.13 65.39 65.15 65.59 67.29 67.14 66.60 65.48 65.37 64.20 64.33 64.44 64.16 63.63 63.64 63.41 63.74 64.20 63.49 63.72
52.36 63.72 65.99 64.74 64.77 66.51 66.87 66.39 65.39 66.10 64.45 63.34 63.34 63.53 63.32 63.47 62.99 62.32 63.17 63.06 62.54 62.49
46.72 51.23 63.16 63.52 64.66 65.51 64.70 65.22 64.51 64.27 62.85 62.17 62.39 63.03 62.59 61.68 61.64 62.11 61.71 61.72 61.44 61.35
42.69 44.82 47.72 57.53 60.40 60.81 60.74 61.06 61.16 61.49 61.43 61.87 61.48 61.62 61.14 60.78 61.35 61.28 60.94 60.79 61.13 61.88
39.65 41.31 42.96 45.23 47.00 48.24 52.14 55.93 53.80 51.71 46.59 45.30 43.95 44.93 48.94 54.22 56.39 57.34 57.86 59.27 60.73 61.02
37.73 37.56 38.81 39.46 41.06 42.52 42.69 43.57 43.71 41.02 40.01 40.23 38.77 38.11 41.40 47.91 53.00 54.12 56.05 58.01 58.59 58.35
34.05 34.80 35.36 35.17 36.82 35.98 37.29 36.56 36.69 35.96 36.35 36.67 37.28 36.82 37.49 42.26 49.94 48.63 46.75 46.29 46.10 48.88
31.39 31.78 32.46 33.37 32.58 32.28 32.64 33.94 33.52 33.60 33.78 33.60 34.54 35.70 37.10 38.15 40.44 38.89 37.72 37.20 37.63 40.42
30.49 30.37 31.27 31.31 31.11 31.41 31.35 30.65 31.34 31.37 31.46 31.61 32.47 33.61 35.03 35.17 35.55 34.61 33.81 33.26 33.26 35.29
30.70 30.39 30.40 30.24 30.70 30.88 30.26 29.97 30.11 29.50 29.61 29.88 30.49 32.49 32.63 33.14 32.66 31.63 30.67 30.84 31.58 32.03
30.36 30.69 30.10 30.71 31.32 31.68 31.82 31.10 30.52 29.47 29.65 29.81 29.01 30.88 31.09 30.62 30.01 28.23 28.11 28.50 29.01 30.06
29.74 29.56 30.92 31.42 31.47 31.33 31.24 31.30 31.22 31.24 31.02 30.63 30.09 29.82 30.32 29.71 27.24 27.31 26.99 26.21 25.84 27.84

GFSNIL_sfc_wetblb_117.txt.gz
Wetbulb
45.56 48.56 53.44 57.76 61.25 61.67 66.88 67.95 68.80 68.38 66.70 66.41 68.27 67.00 66.48 65.52 65.22 65.11 64.76 64.16 64.52 65.77
43.94 47.01 50.60 57.33 62.81 64.33 66.61 68.47 68.49 68.19 65.52 65.43 65.66 66.22 65.39 64.52 64.12 64.91 65.05 64.78 64.71 65.98
43.48 47.44 50.80 58.27 63.01 65.56 66.96 68.38 67.19 67.01 65.22 64.65 65.00 64.94 64.83 64.27 64.23 63.69 64.27 64.47 64.07 64.10
45.18 47.57 51.68 59.44 64.36 66.48 66.75 66.31 66.32 66.45 64.69 64.25 64.07 64.34 63.98 63.54 63.38 63.00 63.48 63.80 63.47 63.94
42.97 45.44 48.07 55.63 63.48 65.88 65.31 65.68 66.04 66.30 65.48 64.85 63.51 63.34 63.03 62.66 62.81 62.58 61.61 62.74 62.76 62.18
39.69 41.29 41.31 44.18 47.55 50.04 60.72 61.27 57.94 60.03 56.71 58.15 60.18 61.66 61.83 62.07 61.85 62.43 62.16 62.24 61.10 62.32
36.92 37.62 38.98 40.04 40.58 43.26 44.68 44.12 44.38 43.00 43.03 42.12 41.95 44.82 50.23 58.92 59.82 59.40 59.38 60.15 59.93 60.67
34.80 35.96 35.82 36.64 36.49 37.75 38.68 38.62 40.72 42.32 41.33 40.13 39.93 40.44 42.29 52.16 54.84 55.42 55.48 51.91 51.56 50.34
32.72 33.05 33.70 33.37 33.67 34.68 34.45 34.05 34.76 36.08 36.58 38.27 38.57 38.92 39.79 45.29 46.54 45.11 43.32 42.79 43.12 45.58
31.44 31.11 31.25 31.82 31.86 31.10 31.25 32.27 32.23 32.20 32.58 32.35 33.48 36.25 36.63 36.79 37.65 36.59 35.03 35.06 37.21 39.06
30.93 30.76 31.45 31.34 30.95 30.49 30.61 29.96 29.97 30.49 30.53 30.24 31.47 32.77 33.39 33.66 33.03 32.11 31.47 31.77 32.26 33.58
30.83 30.30 30.21 30.64 30.91 31.33 31.47 30.65 30.02 30.21 29.71 29.32 29.89 31.61 31.35 31.50 31.05 30.30 29.31 30.02 30.86 31.08
30.76 30.25 30.29 30.71 31.15 31.55 32.02 31.65 31.44 30.53 30.98 30.82 29.77 31.70 31.00 29.29 28.51 27.38 27.52 28.87 29.06 30.43
29.90 29.39 29.52 30.12 30.90 31.67 31.57 31.13 31.38 30.85 30.09 29.97 30.19 30.86 31.85 31.10 29.52 28.08 26.78 26.06 25.98 27.62

GFSNIL_sfc_wetblb_120.txt.gz
Wetbulb
39.95 41.19 42.88 45.06 47.93 51.46 54.98 58.36 62.40 64.22 65.21 66.87 67.18 67.36 66.92 66.43 65.67 64.89 64.25 63.81 63.59 63.38
38.63 40.06 41.76 44.24 47.08 49.68 53.12 57.62 60.27 63.47 64.07 65.55 66.53 66.74 66.40 65.60 65.03 64.61 64.06 63.46 63.75 63.20
38.89 40.87 42.33 44.29 46.07 48.35 50.99 56.31 60.43 61.85 63.33 63.01 64.70 65.10 64.71 64.70 64.25 63.76 63.34 63.59 63.39 63.35
40.52 42.64 44.73 46.64 48.95 49.31 51.71 55.21 59.88 60.17 60.10 57.75 62.81 63.31 63.73 63.89 63.43 62.93 62.96 63.05 63.01 62.84
38.71 40.06 40.69 42.68 46.04 50.87 53.71 56.86 60.68 61.38 61.32 59.66 62.79 63.28 63.43 62.94 62.79 62.57 61.94 62.31 62.22 62.15
36.14 36.70 37.03 38.11 40.39 41.99 42.94 45.19 45.68 46.02 47.92 49.22 51.67 61.28 63.12 62.93 62.28 62.20 61.84 62.06 61.74 61.79
33.50 34.63 35.43 36.94 36.08 37.09 38.82 37.91 40.86 43.20 42.76 43.91 44.44 45.67 49.07 61.69 61.51 61.61 61.07 61.01 58.25 55.53
32.72 33.49 33.71 33.69 34.78 34.66 34.20 34.02 35.69 35.98 38.23 39.38 40.73 43.03 45.78 47.05 46.79 48.67 48.24 48.58 47.78 43.92
31.72 32.13 32.40 32.13 32.10 32.82 32.47 33.01 34.30 33.69 33.63 33.81 36.59 37.89 39.74 38.99 37.40 37.39 37.56 37.80 41.04 42.15
31.01 31.11 31.39 31.92 31.41 30.86 30.86 31.53 31.52 31.81 32.44 32.78 33.39 34.13 35.43 36.79 36.24 35.70 33.96 33.18 33.70 35.06
29.97 29.62 30.73 31.23 31.09 31.09 30.84 29.64 29.45 29.27 30.14 30.15 31.06 32.41 32.10 32.24 31.22 30.32 30.22 31.28 31.56 31.85
27.72 28.04 28.41 28.86 29.91 30.73 31.02 29.80 28.71 29.01 28.17 28.72 30.27 32.26 32.18 30.43 29.38 28.53 27.49 28.68 29.98 30.00
27.81 25.67 26.11 27.25 27.78 29.70 30.00 30.43 29.81 28.14 28.03 28.93 27.99 31.81 32.34 31.22 29.74 27.87 27.69 28.29 28.49 30.32
25.83 26.06 24.30 25.05 26.06 26.80 27.33 26.75 27.34 27.28 26.88 26.38 27.38 27.92 30.81 31.22 29.44 28.65 28.02 28.05 28.52 29.88

GFSNIL_sfc_wetblb_123.txt.gz
Wetbulb
35.31 36.41 37.58 39.12 40.53 41.95 43.51 45.58 48.78 51.68 55.62 60.28 63.13 64.25 65.20 65.09 63.48 60.88 61.38 62.93 64.01 63.63
35.82 36.75 37.52 39.08 40.74 41.89 43.61 45.62 46.99 50.03 53.18 57.30 61.15 62.67 63.27 64.09 63.46 63.12 61.92 62.33 63.42 62.95
37.05 39.03 40.44 41.44 41.60 42.74 44.24 45.94 46.46 47.70 50.20 54.63 58.94 61.54 61.73 62.34 62.98 63.03 63.20 63.09 62.64 62.80
36.82 38.73 39.28 40.39 42.15 43.43 45.95 46.46 48.30 48.90 50.44 53.81 58.04 60.07 58.91 60.56 61.51 62.25 63.01 62.94 62.38 61.96
35.19 36.33 37.58 37.34 38.84 41.03 42.39 46.94 49.77 51.23 52.08 55.04 54.14 55.32 55.32 55.70 57.51 54.31 61.35 61.59 62.17 61.68
33.58 33.82 34.50 35.77 36.23 37.18 38.07 39.15 41.07 41.95 41.93 42.63 44.12 45.74 49.50 53.55 55.73 60.70 62.02 62.02 61.63 61.81
32.30 33.28 33.18 33.98 34.13 34.60 35.25 35.23 35.11 36.18 36.78 37.02 37.66 40.15 44.61 51.91 59.33 60.01 59.85 56.64 55.14 51.59
31.62 32.98 33.10 32.60 32.45 32.72 33.17 33.48 33.68 33.12 33.47 34.91 35.10 35.66 37.74 41.15 42.71 43.38 43.93 43.62 40.58 39.89
29.78 31.28 31.75 32.11 31.45 31.04 30.50 31.11 31.37 31.54 31.72 31.45 32.41 33.96 34.36 34.33 33.76 36.04 36.75 37.05 36.19 37.03
27.79 27.98 29.43 31.07 31.08 29.42 28.63 29.12 28.55 29.64 30.46 30.47 31.30 32.76 33.15 32.74 31.21 31.54 31.77 32.26 33.22 34.15
24.42 24.88 26.76 27.90 28.31 29.70 28.39 27.09 26.97 26.94 28.28 29.54 31.27 32.77 32.46 31.98 30.80 29.56 29.73 30.30 29.73 30.84
22.96 22.78 23.20 24.08 25.70 25.67 27.13 25.88 24.92 25.02 25.64 25.57 28.64 32.26 32.40 30.91 29.90 29.42 29.14 30.00 31.26 30.22
23.61 21.72 21.27 22.18 22.80 24.83 23.50 23.19 23.43 22.47 23.19 26.23 24.95 30.47 31.88 30.76 29.68 28.33 28.88 29.94 30.30 31.79
23.25 22.29 21.08 20.95 21.47 21.94 22.73 21.79 20.88 20.78 21.25 22.28 25.06 25.95 29.66 30.91 29.10 28.52 27.74 28.01 28.50 30.12

GFSNIL_sfc_wetblb_126.txt.gz
Wetbulb
34.83 35.18 35.80 36.56 37.52 38.25 39.50 40.34 42.29 43.37 44.75 46.59 49.69 51.88 55.27 61.00 62.80 62.91 63.14 62.65 59.70 58.90
35.88 36.66 37.53 38.37 39.04 39.54 40.95 42.22 43.26 44.12 44.97 46.66 48.28 51.11 54.23 58.73 60.84 60.66 59.89 60.20 58.61 57.63
35.50 36.37 37.83 39.48 40.02 41.55 43.52 44.20 44.69 45.09 46.07 46.96 47.50 48.79 51.99 56.17 59.92 59.82 58.40 58.59 57.81 58.31
34.67 35.54 36.42 36.86 37.74 38.50 40.22 41.85 44.94 47.18 47.11 47.65 48.77 49.38 51.57 55.15 58.87 59.17 59.17 58.57 57.98 58.09
34.75 34.32 34.28 34.53 35.80 37.10 36.95 38.03 38.76 40.07 41.12 43.10 44.49 47.78 49.95 52.33 57.77 58.54 57.62 57.54 59.87 60.27
32.55 32.95 32.67 32.88 33.69 34.82 35.20 35.42 35.64 36.61 37.13 37.40 38.54 42.95 46.19 48.81 53.15 53.37 53.32 52.61 55.07 56.08
29.43 31.87 31.84 32.10 31.87 31.92 32.97 33.26 33.73 34.13 34.90 35.44 35.74 36.85 38.53 40.27 42.28 41.85 41.37 41.46 41.04 42.30
27.61 30.00 31.54 30.58 30.08 30.37 30.03 31.05 32.04 32.53 33.04 33.62 33.65 34.28 35.36 35.65 35.56 35.74 36.53 37.04 37.89 38.55
25.43 26.85 28.03 29.65 28.68 27.89 27.95 28.18 27.96 29.87 31.05 31.03 32.28 33.76 33.63 33.82 33.51 32.96 32.80 32.93 34.44 35.86
22.98 23.16 25.24 25.52 26.33 25.39 24.54 24.99 25.89 26.35 28.38 30.02 31.16 33.18 32.99 32.36 31.32 30.92 30.99 31.10 31.55 32.23
21.09 20.52 21.94 23.50 22.44 23.03 22.89 22.57 22.87 24.70 25.73 28.09 30.72 32.63 32.57 31.96 30.76 30.07 29.94 30.26 30.45 30.53
21.18 19.58 19.32 19.45 21.14 21.42 21.06 20.69 21.01 22.61 24.56 24.70 28.17 31.58 31.69 30.36 29.61 29.01 29.11 29.45 30.14 29.58
22.37 20.86 19.24 18.60 18.98 19.81 20.46 20.28 20.92 20.75 22.59 26.01 24.77 30.20 30.70 28.84 27.79 26.56 26.83 27.64 28.40 30.15
21.64 21.26 20.83 20.46 20.07 19.58 19.59 19.72 19.92 20.12 21.38 22.45 25.37 26.05 28.74 28.56 26.01 25.21 25.17 24.44 24.63 26.31

GFSNIL_sfc_wetblb_129.txt.gz
Wetbulb
34.41 35.11 35.86 37.00 37.78 38.05 38.46 39.53 41.04 42.00 42.63 42.78 43.90 45.11 47.01 49.17 51.61 55.93 60.81 61.59 62.13 61.70
34.38 35.16 35.54 36.81 38.36 38.93 40.93 41.97 42.75 43.29 43.72 44.07 44.61 45.74 47.21 47.47 49.28 54.47 58.79 60.27 60.67 60.51
33.40 34.97 35.58 36.01 35.99 37.21 38.75 39.93 40.65 42.88 42.98 45.11 45.50 46.37 47.27 47.40 49.03 51.37 55.54 59.53 58.70 57.78
31.55 33.57 34.39 34.02 34.74 35.51 36.82 36.94 37.77 39.02 40.45 44.78 46.91 48.45 48.90 49.10 49.19 50.94 55.26 58.71 59.02 57.15
30.39 32.89 31.86 32.04 32.57 34.13 34.62 35.73 35.85 36.52 37.27 37.80 39.69 43.33 46.91 50.19 51.94 53.50 55.22 58.22 56.74 56.30
27.56 30.24 30.24 29.88 30.75 30.93 31.81 33.28 33.71 34.18 34.38 34.27 36.00 37.89 41.11 43.84 46.12 43.74 43.57 44.58 45.43 45.21
25.33 27.41 28.71 28.73 28.10 28.95 29.73 29.86 31.74 32.37 32.68 33.38 33.52 34.99 36.53 37.41 38.61 38.80 39.24 39.77 39.90 38.63
24.28 26.15 25.85 26.88 26.20 26.31 26.88 28.14 29.09 30.79 31.43 32.10 32.69 33.01 33.17 34.04 34.24 34.64 35.05 35.82 36.92 38.54
22.08 22.67 24.08 23.58 23.97 23.90 24.18 24.93 26.59 27.69 29.46 29.99 31.38 33.06 33.01 31.67 31.17 31.34 31.39 31.84 33.01 34.44
19.71 19.28 20.20 21.73 21.60 21.63 21.57 23.16 24.31 25.49 27.77 28.42 29.90 32.38 32.29 31.38 29.66 28.90 28.68 28.76 29.76 30.83
19.49 18.11 18.22 18.96 19.04 19.46 20.71 21.27 22.08 23.73 24.82 27.03 28.58 30.41 30.75 30.08 28.24 27.51 27.80 28.26 28.02 28.24
20.50 18.64 17.67 17.12 18.08 18.99 19.08 19.86 21.00 22.48 23.86 23.27 25.36 29.55 28.57 27.72 26.49 25.25 25.24 26.34 28.04 27.45
21.54 20.26 18.43 17.86 18.04 19.20 19.52 19.04 20.26 20.94 22.67 24.87 22.43 27.57 27.36 25.47 24.39 23.37 23.28 24.13 25.04 27.84
19.39 20.06 19.63 19.14 19.17 19.48 19.76 19.78 19.07 18.90 20.34 21.54 22.64 22.92 25.64 25.52 22.00 21.66 21.20 20.42 20.79 23.43

GFSNIL_sfc_wetblb_132.txt.gz
Wetbulb
32.18 32.71 34.30 34.91 35.92 37.02 37.77 39.22 41.27 41.62 42.06 42.37 43.25 42.84 43.10 43.99 45.37 48.14 50.10 54.29 59.07 59.33
30.71 32.87 33.47 34.46 35.75 36.39 37.50 38.55 39.87 40.65 41.32 43.70 44.13 44.40 44.48 44.79 45.23 48.99 50.82 54.70 56.90 59.31
29.37 32.79 32.75 33.26 33.20 34.72 36.05 36.54 37.16 38.56 39.83 41.45 44.52 44.73 45.11 45.51 46.67 47.80 48.73 50.16 51.55 57.59
28.50 30.49 30.92 30.59 31.65 31.83 34.54 35.02 35.33 36.22 36.76 37.83 40.24 42.91 46.26 46.57 47.93 48.50 49.14 51.05 53.83 55.32
27.31 27.95 28.81 28.51 28.97 31.00 31.46 34.33 34.09 34.75 34.94 35.21 36.90 38.72 40.29 43.55 47.85 49.87 50.48 49.72 52.61 54.54
24.40 25.92 25.80 26.51 27.41 28.41 29.61 31.38 33.02 32.93 33.00 32.94 33.46 35.02 36.45 37.91 39.15 39.53 40.59 40.30 39.99 40.01
22.37 23.71 24.25 24.93 25.40 26.46 28.19 28.83 30.64 31.49 31.92 32.18 31.95 32.07 32.67 33.37 34.09 34.86 35.27 36.50 37.28 36.87
21.17 22.24 23.22 23.18 24.20 25.14 25.98 27.18 28.86 29.00 29.44 30.76 31.24 31.49 30.46 30.74 30.24 30.41 31.01 32.16 33.02 34.00
20.09 20.04 20.86 21.37 22.02 22.95 23.87 25.10 24.98 26.42 27.25 28.07 29.93 31.12 30.57 28.89 27.97 28.50 27.92 28.29 30.06 31.08
19.55 18.47 18.83 20.43 20.65 20.57 21.40 23.10 23.37 23.21 24.74 25.35 27.19 29.73 29.34 28.07 26.22 25.74 26.77 26.40 27.30 28.31
19.10 17.99 18.04 18.28 18.81 19.45 20.44 20.71 21.45 21.87 22.07 23.37 25.45 27.26 27.38 26.55 24.43 23.79 24.16 26.22 25.86 26.29
19.47 17.84 17.37 16.79 17.59 18.84 18.72 18.94 19.56 19.97 20.54 19.81 22.49 25.94 25.32 23.42 22.02 21.19 21.09 22.63 25.47 25.13
20.63 19.22 17.73 17.53 17.52 18.82 19.11 17.75 18.11 18.26 18.62 22.10 19.07 24.78 24.33 21.55 19.92 18.45 19.21 19.80 21.42 25.06
18.85 19.38 18.23 18.34 18.96 18.98 19.08 18.03 17.24 16.78 17.52 17.59 20.14 20.04 23.41 22.58 17.39 16.51 16.73 16.80 16.87 19.61

GFSNIL_sfc_wetblb_135.txt.gz
Wetbulb
31.18 31.66 33.27 33.52 34.00 34.60 35.40 37.08 38.71 39.70 40.37 41.87 43.24 44.23 44.61 43.94 43.83 45.90 48.05 49.13 49.56 50.25
30.41 31.08 31.53 31.89 32.46 33.31 34.29 36.52 36.98 37.99 38.44 40.12 41.08 43.59 44.42 44.23 44.15 44.91 47.43 49.90 50.93 53.65
30.02 30.52 31.13 31.00 30.24 31.27 32.80 35.20 35.98 36.38 36.52 37.50 40.09 42.01 44.53 43.94 45.47 46.11 47.43 48.35 51.07 51.16
28.18 28.66 28.85 28.80 29.39 30.09 31.85 33.76 34.70 35.18 34.96 35.17 36.96 39.51 41.82 44.81 45.83 46.41 48.03 50.03 50.27 52.51
26.51 26.99 26.94 27.11 28.13 29.54 30.12 32.32 32.47 33.92 33.46 33.49 34.13 35.45 36.74 37.19 38.32 39.04 38.99 39.48 39.61 40.27
24.07 24.38 25.04 25.65 27.31 28.62 28.96 30.11 30.88 31.59 31.71 31.39 31.96 32.54 33.35 33.73 33.97 33.86 34.71 34.87 36.59 35.17
22.74 23.43 24.12 25.28 26.50 27.38 28.54 27.78 28.93 29.68 30.87 30.74 30.12 30.21 30.92 30.96 31.24 31.59 31.85 32.70 33.23 34.28
22.61 23.34 23.99 24.73 25.16 25.94 26.70 26.67 27.52 27.96 28.14 29.97 30.15 29.66 28.52 29.18 28.78 28.67 29.07 30.01 30.70 32.14
21.87 21.97 22.79 23.41 24.00 24.10 24.58 25.43 24.71 26.22 26.78 26.79 28.38 28.67 28.43 27.73 27.13 27.17 26.71 26.67 28.33 29.34
20.76 20.44 20.96 22.29 22.27 22.35 22.75 23.27 23.48 23.35 25.29 25.22 26.01 26.97 26.97 25.95 25.20 25.70 26.90 26.42 26.23 26.93
20.20 19.82 20.40 20.93 21.25 21.52 22.38 22.05 21.89 22.68 22.96 25.23 25.24 24.91 24.80 24.51 24.76 24.02 24.29 26.62 25.70 26.15
21.33 20.27 20.18 19.83 21.20 21.46 20.80 20.83 21.20 21.07 21.77 21.35 23.64 24.17 22.96 22.92 22.72 22.20 21.48 23.43 25.15 24.56
22.19 21.34 19.94 20.90 21.45 21.83 21.44 20.39 21.60 20.74 20.57 21.63 20.97 23.19 22.59 21.33 20.97 19.29 20.32 20.49 21.88 22.57
22.08 21.16 21.03 21.34 21.77 22.02 21.01 20.46 20.52 20.38 20.91 20.14 20.86 21.31 21.70 20.82 19.11 18.41 17.96 18.22 18.72 20.12